TimeAKST,TemperatureF,Dew PointF,Humidity,Sea Level PressureIn,VisibilityMPH,Wind Direction,Wind SpeedMPH,Gust SpeedMPH,PrecipitationIn,Events,Conditions,WindDirDegrees,DateUTC
12:53 AM,30.0,16.0,56,29.57,10.0,North,17.3,25.3,0.00,,Overcast,360,2014-02-07 09:53:00
1:53 AM,30.9,14.0,50,29.54,10.0,North,21.9,43.7,N/A,,Overcast,350,2014-02-07 10:53:00
3:53 AM,32.0,12.9,45,29.51,10.0,NNW,23.0,40.3,N/A,,Overcast,330,2014-02-07 12:53:00
4:53 AM,32.0,12.9,45,29.49,10.0,NW,27.6,42.6,N/A,,Overcast,320,2014-02-07 13:53:00
5:53 AM,30.9,15.1,52,29.50,10.0,NW,23.0,42.6,N/A,,Mostly Cloudy,320,2014-02-07 14:53:00
6:53 AM,32.0,18.0,56,29.52,10.0,NNW,27.6,38.0,N/A,,Partly Cloudy,340,2014-02-07 15:53:00
7:53 AM,32.0,19.9,61,29.53,8.0,NNW,24.2,39.1,0.00,Snow,Light Snow,330,2014-02-07 16:53:00
8:53 AM,32.0,24.1,73,29.56,3.0,North,20.7,39.1,0.00,Snow,Light Snow,350,2014-02-07 17:53:00
9:04 AM,30.2,24.8,80,29.56,2.5,NNW,23.0,33.4,0.00,Snow,Light Snow,340,2014-02-07 18:04:00
9:15 AM,30.2,24.8,80,29.57,3.0,North,16.1,33.4,0.00,Snow,Light Snow,350,2014-02-07 18:15:00
9:23 AM,32.0,24.8,75,29.57,2.5,NNW,25.3,38.0,0.00,Snow,Light Snow,340,2014-02-07 18:23:00
9:42 AM,32.0,24.8,75,29.58,2.5,North,17.3,26.5,0.00,Snow,Light Snow,350,2014-02-07 18:42:00
9:46 AM,32.0,24.8,75,29.58,3.0,North,16.1,26.5,0.00,Snow,Light Snow,350,2014-02-07 18:46:00
9:53 AM,32.0,25.0,75,29.59,1.8,North,19.6,27.6,0.00,Snow,Light Snow,350,2014-02-07 18:53:00
10:53 AM,32.0,26.1,79,29.62,2.5,North,11.5,25.3,0.00,Snow,Light Snow,350,2014-02-07 19:53:00
11:03 AM,33.8,26.6,75,29.62,3.0,North,16.1,21.9,0.00,Snow,Light Snow,350,2014-02-07 20:03:00
11:17 AM,33.8,26.6,75,29.63,2.0,North,10.4,26.5,0.00,Snow,Light Snow,350,2014-02-07 20:17:00
11:28 AM,33.8,26.6,75,29.63,1.5,NW,13.8,21.9,0.00,Snow,Light Snow,320,2014-02-07 20:28:00
11:39 AM,33.8,26.6,75,29.64,3.0,NNW,11.5,-,0.00,Snow,Light Snow,330,2014-02-07 20:39:00
11:53 AM,34.0,26.1,73,29.64,3.0,NNW,15.0,21.9,0.00,Snow,Light Snow,330,2014-02-07 20:53:00
12:12 PM,35.6,26.6,70,29.64,3.0,North,10.4,26.5,0.00,Snow,Light Snow,10,2014-02-07 21:12:00
12:50 PM,35.6,28.4,75,29.67,2.5,NNW,13.8,25.3,0.00,Snow,Light Snow,330,2014-02-07 21:50:00
12:53 PM,36.0,28.0,73,29.67,2.0,North,16.1,25.3,0.00,Snow,Light Snow,360,2014-02-07 21:53:00
1:06 PM,35.6,28.4,75,29.67,2.0,North,11.5,20.7,0.00,Snow,Light Snow,360,2014-02-07 22:06:00
1:10 PM,35.6,28.4,75,29.67,3.0,North,13.8,-,0.00,Snow,Light Snow,350,2014-02-07 22:10:00
1:24 PM,35.6,28.4,75,29.68,2.5,NNW,13.8,21.9,0.00,Snow,Light Snow,340,2014-02-07 22:24:00
1:44 PM,35.6,28.4,75,29.68,3.0,NNW,12.7,19.6,0.00,Snow,Light Snow,340,2014-02-07 22:44:00
1:53 PM,37.0,28.0,70,29.69,4.0,North,13.8,23.0,0.00,Snow,Light Snow,360,2014-02-07 22:53:00
2:53 PM,37.0,28.0,70,29.73,4.0,North,10.4,23.0,0.00,Snow,Light Snow,360,2014-02-07 23:53:00
3:11 PM,35.6,30.2,81,29.74,2.5,NNW,17.3,26.5,0.00,Snow,Light Snow,330,2014-02-08 00:11:00
3:28 PM,35.6,30.2,81,29.76,1.8,NNW,15.0,24.2,0.00,Snow,Light Snow,340,2014-02-08 00:28:00
3:38 PM,35.6,28.4,75,29.77,1.2,NNW,13.8,23.0,0.00,Snow,Light Snow,330,2014-02-08 00:38:00
3:47 PM,35.6,28.4,75,29.77,2.0,NW,16.1,23.0,0.00,Snow,Light Snow,320,2014-02-08 00:47:00
3:53 PM,35.1,28.9,78,29.78,2.0,North,13.8,29.9,0.00,Snow,Light Snow,360,2014-02-08 00:53:00
4:02 PM,35.6,28.4,75,29.78,3.0,NNW,13.8,26.5,0.00,Snow,Light Snow,340,2014-02-08 01:02:00
4:53 PM,36.0,28.0,73,29.82,7.0,NNW,18.4,24.2,0.00,Snow,Light Snow,340,2014-02-08 01:53:00
5:53 PM,37.0,28.0,70,29.87,10.0,North,11.5,20.7,0.00,,Overcast,350,2014-02-08 02:53:00
6:53 PM,37.9,25.0,60,29.89,10.0,North,8.1,-,0.00,,Overcast,360,2014-02-08 03:53:00
7:53 PM,34.0,27.0,75,29.93,10.0,Calm,Calm,-,N/A,,Overcast,0,2014-02-08 04:53:00
8:53 PM,34.0,27.0,75,29.97,10.0,Calm,Calm,-,N/A,,Overcast,0,2014-02-08 05:53:00
9:53 PM,33.1,28.0,82,30.01,10.0,East,5.8,-,N/A,,Overcast,90,2014-02-08 06:53:00
10:53 PM,30.0,27.0,88,30.03,10.0,Calm,Calm,-,N/A,,Mostly Cloudy,0,2014-02-08 07:53:00
11:53 PM,30.0,25.0,82,30.05,10.0,North,5.8,-,N/A,,Scattered Clouds,350,2014-02-08 08:53:00